Location: Croagnes
(43.9363°N, 5.3265°E)
Time: 03:07:33
(UTC+00:00)

UWE-3 - Visible Passes

Search period start: 17 October 2021 00:00
Search period end: 27 October 2021 00:00
Orbit: 584 x 682 km, 97.7° (Epoch: 16 October)

Date Brightness Start Highest point End Pass type
(mag) Time Alt. Az. Time Alt. Az. Time Alt. Az.
17 Oct ? 02:32:17 10° NE 02:34:06 15° E 02:34:06 15° E visible
17 Oct ? 04:07:24 10° N 04:11:26 47° WNW 04:11:31 47° WNW visible
18 Oct ? 02:52:39 10° NE 02:55:20 23° ENE 02:55:20 23° ENE visible
18 Oct ? 04:28:56 10° N 04:32:31 28° WNW 04:32:45 28° WNW visible
19 Oct ? 03:13:28 10° NNE 03:16:34 37° ENE 03:16:34 37° ENE visible
19 Oct ? 04:50:44 10° NNW 04:53:33 18° WNW 04:54:00 17° WNW visible
20 Oct ? 03:34:32 10° NNE 03:37:49 52° NNE 03:37:49 52° NNE visible
20 Oct ? 05:13:19 10° NW 05:14:30 11° WNW 05:15:14 11° WNW visible
21 Oct ? 03:55:47 10° N 03:59:03 49° NNW 03:59:03 49° NNW visible
22 Oct ? 02:41:28 10° NE 02:42:51 16° ENE 02:42:51 16° ENE visible
22 Oct ? 04:17:12 10° N 04:20:16 33° NW 04:20:16 33° NW visible
23 Oct ? 03:02:06 10° NNE 03:04:06 23° NE 03:04:06 23° NE visible
23 Oct ? 04:38:50 10° NNW 04:41:30 22° NW 04:41:30 22° NW visible
24 Oct ? 03:23:02 10° NNE 03:25:19 30° NE 03:25:19 30° NE visible
24 Oct ? 05:00:53 10° NNW 05:02:44 14° WNW 05:02:44 14° WNW visible
25 Oct ? 03:44:11 10° N 03:46:33 33° N 03:46:33 33° N visible
26 Oct ? 04:05:30 10° N 04:07:47 29° NNW 04:07:47 29° NNW visible
